Ogden Hill AFB, UT

8:48 PM MDT on June 27, 2017 (GMT -0600)
Hill Air Force Base

Weather History for KHIF - January, 2012

Change the Weather History Date:

Friday, January 20, 2012

  Actual Average Record
Temperature  
Mean Temperature 40 °F -  
Max Temperature 46 °F 34 °F 93 °F (1997)
Min Temperature 35 °F 22 °F 5 °F (2013)
Degree Days  
Heating Degree Days 24    
Moisture  
Dew Point 32 °F    
Average Humidity 71    
Maximum Humidity 93    
Minimum Humidity 46    
Precipitation  
Precipitation 0.06 in - - ()
Sea Level Pressure  
Sea Level Pressure 29.89 in    
Wind  
Wind Speed 7 mph (ESE)    
Max Wind Speed 13 mph    
Max Gust Speed -    
Visibility 10 miles    
Events Rain    
Averages and records for this station are not official NWS values.
T = Trace of Precipitation, MM = Missing Value Source: NWS Daily Summary

Daily Weather History Graph

Daily Weather History Graph

Search for Another Location

Airport or City:

Trip Planner

Search our weather history database for the weather conditions in past years. The results will help you decide how hot, cold, wet, or windy it might be!

Date:

Astronomy

Jan. 20, 2012 Rise Set
Actual Time 7:48 AM MST 5:29 PM MST
Civil Twilight 7:18 AM MST 5:59 PM MST
Nautical Twilight 6:44 AM MST 6:33 PM MST
Astronomical Twilight 6:12 AM MST 7:06 PM MST
Moon 5:30 AM MST (1/20) 3:04 PM MST (1/20)
Length of Visible Light 10h 40m
Length of Day
9h 40m
Waning Crescent, 8% of the Moon is Illuminated
Jan 20
Waning Crescent
Jan 23
New
Jan 30
First Quarter
Feb 7
Full
Feb 14
Last Quarter

Hourly Weather History & Observations

Time (MST) Temp. Windchill Dew Point Humidity Pressure Visibility Wind Dir Wind Speed Gust Speed Precip Events Conditions
12:03 AM 41.0 °F 35.2 °F 33.8 °F 76% 29.85 in 10.0 mi East 9.2 mph - N/A   Mostly Cloudy
12:55 AM 39.6 °F 35.4 °F 33.3 °F 78% 29.85 in 10.0 mi ENE 5.8 mph - N/A   Mostly Cloudy
12:58 AM 39.2 °F 34.2 °F 33.8 °F 81% 29.85 in 10.0 mi ENE 6.9 mph - N/A   Scattered Clouds
1:22 AM 41.0 °F 38.0 °F 32.0 °F 70% 29.86 in 10.0 mi North 4.6 mph - N/A   Light Drizzle
1:55 AM 39.4 °F - 32.5 °F 76% 29.87 in 10.0 mi Calm Calm - 0.00 in Rain Light Rain
2:22 AM 39.2 °F 37.0 °F 33.8 °F 81% 29.88 in 6.0 mi Variable 3.5 mph - N/A Rain Rain
2:29 AM 39.2 °F 37.0 °F 35.6 °F 87% 29.88 in 6.0 mi North 3.5 mph - N/A Rain Light Rain
2:55 AM 37.4 °F 34.9 °F 34.9 °F 91% 29.88 in 10.0 mi NNE 3.5 mph - 0.05 in Rain Light Rain
3:20 AM 37.4 °F 31.4 °F 35.6 °F 93% 29.88 in 10.0 mi ENE 8.1 mph - N/A   Partly Cloudy
3:28 AM 37.4 °F 32.1 °F 33.8 °F 87% 29.88 in 10.0 mi ENE 6.9 mph - N/A   Mostly Cloudy
3:55 AM 36.9 °F 30.7 °F 34.3 °F 91% 29.88 in 10.0 mi ENE 8.1 mph - 0.00 in   Overcast
4:55 AM 37.4 °F 31.4 °F 34.0 °F 87% 29.88 in 10.0 mi East 8.1 mph - 0.01 in   Overcast
5:55 AM 39.2 °F 31.6 °F 33.1 °F 79% 29.87 in 10.0 mi SE 12.7 mph - N/A   Overcast
6:31 AM 39.2 °F 32.0 °F 33.8 °F 81% 29.88 in 10.0 mi SSE 11.5 mph - N/A   Scattered Clouds
6:48 AM 37.4 °F 30.8 °F 33.8 °F 87% 29.90 in 10.0 mi South 9.2 mph - N/A   Mostly Cloudy
6:55 AM 36.7 °F 29.9 °F 33.3 °F 87% 29.90 in 10.0 mi SSE 9.2 mph - N/A   Mostly Cloudy
7:32 AM 35.6 °F 29.2 °F 32.0 °F 87% 29.92 in 10.0 mi South 8.1 mph - N/A   Scattered Clouds
7:39 AM 35.6 °F 29.9 °F 32.0 °F 87% 29.93 in 10.0 mi South 6.9 mph - N/A   Mostly Cloudy
7:55 AM 37.6 °F 32.3 °F 32.5 °F 82% 29.94 in 10.0 mi SSE 6.9 mph - N/A   Mostly Cloudy
8:55 AM 39.4 °F 32.3 °F 32.2 °F 75% 29.95 in 6.0 mi SSE 11.5 mph - N/A   Mostly Cloudy
9:55 AM 39.2 °F 34.2 °F 33.3 °F 79% 29.98 in 6.0 mi SSE 6.9 mph - N/A   Mostly Cloudy
10:55 AM 43.0 °F 37.7 °F 32.2 °F 66% 30.00 in 10.0 mi SSW 9.2 mph - N/A   Mostly Cloudy
11:55 AM 42.1 °F 37.1 °F 31.6 °F 67% 30.00 in 10.0 mi South 8.1 mph - N/A   Mostly Cloudy
12:55 PM 43.7 °F 41.1 °F 31.5 °F 62% 29.98 in 10.0 mi South 4.6 mph - N/A   Overcast
1:55 PM 44.6 °F 43.1 °F 31.1 °F 59% 29.94 in 10.0 mi Variable 3.5 mph - N/A   Mostly Cloudy
2:04 PM 44.6 °F 41.4 °F 32.0 °F 61% 29.93 in 10.0 mi East 5.8 mph - N/A   Mostly Cloudy
2:29 PM 46.4 °F 44.3 °F 32.0 °F 57% 29.93 in 10.0 mi East 4.6 mph - N/A   Mostly Cloudy
2:42 PM 46.4 °F 45.2 °F 30.2 °F 53% 29.93 in 10.0 mi ESE 3.5 mph - N/A   Scattered Clouds
2:55 PM 46.4 °F 45.2 °F 31.6 °F 56% 29.93 in 10.0 mi ESE 3.5 mph - N/A   Partly Cloudy
3:55 PM 44.4 °F - 31.8 °F 61% 29.94 in 10.0 mi Calm Calm - N/A   Clear
4:55 PM 42.1 °F 37.7 °F 31.3 °F 66% 29.92 in 10.0 mi East 6.9 mph - N/A   Mostly Cloudy
5:18 PM 41.0 °F 35.8 °F 30.2 °F 65% 29.91 in 10.0 mi East 8.1 mph - N/A   Mostly Cloudy
5:19 PM 41.0 °F 35.8 °F 30.2 °F 65% 29.91 in 10.0 mi East 8.1 mph - N/A   Mostly Cloudy
5:55 PM 41.9 °F 36.3 °F 30.7 °F 65% 29.88 in 10.0 mi East 9.2 mph - N/A   Overcast
6:04 PM 42.8 °F 37.5 °F 30.2 °F 61% 29.88 in 10.0 mi East 9.2 mph - N/A   Overcast
6:55 PM 41.5 °F 35.4 °F 31.1 °F 66% 29.87 in 10.0 mi ESE 10.4 mph - N/A   Overcast
7:55 PM 42.3 °F 36.8 °F 31.1 °F 65% 29.86 in 10.0 mi SE 9.2 mph - N/A   Mostly Cloudy
8:04 PM 42.8 °F 37.0 °F 30.2 °F 61% 29.84 in 10.0 mi SE 10.4 mph - N/A   Mostly Cloudy
8:20 PM 42.8 °F 37.0 °F 30.2 °F 61% 29.83 in 10.0 mi SE 10.4 mph - N/A   Mostly Cloudy
8:28 PM 42.8 °F 36.6 °F 30.2 °F 61% 29.83 in 10.0 mi SE 11.5 mph - N/A   Scattered Clouds
8:55 PM 43.3 °F 37.7 °F 29.3 °F 58% 29.82 in 10.0 mi SE 10.4 mph - N/A   Clear
9:55 PM 44.2 °F 40.3 °F 28.2 °F 53% 29.79 in 10.0 mi ESE 6.9 mph - N/A   Clear
10:55 PM 45.9 °F 40.4 °F 26.1 °F 46% 29.76 in 10.0 mi SSE 11.5 mph - N/A   Clear
11:55 PM 46.2 °F 42.2 °F 26.4 °F 46% 29.74 in 10.0 mi SE 8.1 mph - N/A   Partly Cloudy